Regional Weather Roundup
Issued by NWS

Home | Current Version | Previous Version | Graphics & Text | Print | Product List | Glossary On
Versions: 1 2 3 4 5 6 7 8 9 10 11 12 13 14 15 16 17 18 19 20 21 22 23 24 25 26 27 28 29 30 31 32 33 34 35 36 37 38 39 40 41 42 43 44 45 46 47 48 49 50
000
ASUS43 KMPX 300801
RWRMN
WEATHER ROUNDUP FOR MINNESOTA
NATIONAL WEATHER SERVICE TWIN CITIES/CHANHASSEN MN
300 AM CDT WED JUL 30 2014


NOTE: "FAIR" INDICATES FEW OR NO CLOUDS BELOW 12,000 FEET WITH NO
SIGNIFICANT WEATHER AND/OR OBSTRUCTIONS TO VISIBILITY. N/A MEANS
CURRENT SKY AND/OR WEATHER CONDITIONS ARE NOT AVAILABLE.

MNZ060>063-068>070-300900-
   Twin Cities Metro

CITY           SKY/WX    TMP DP  RH WIND       PRES   REMARKS
TWIN CITIES    PTCLDY    63  56  78 NW3       30.06S
ST PAUL        CLEAR     60  59  96 CALM      30.06S
CRYSTAL        CLEAR     63  54  72 CALM      30.05S
BLAINE         MOCLDY    59  57  94 CALM      30.06S
LAKEVILLE      CLEAR     57  55  94 W3        30.06S
EDEN PRAIRIE   CLEAR     64  56  75 NW3       30.05S
SOUTH ST PAUL  CLEAR     60  58  92 CALM      30.06S
LAKE ELMO      FAIR      55  55 100 CALM      30.06F
$$
MNZ001>005-007-008-013>017-022>024-027-028-300900-
   Northwest Minnesota

CITY           SKY/WX    TMP DP  RH WIND       PRES   REMARKS
BEMIDJI        CLEAR     54  52  93 W6        30.10S
HALLOCK        CLEAR     55  54  94 CALM      30.10S
ROSEAU         CLEAR     61  55  82 W9        30.09R
WARROAD        CLEAR     61  55  82 W7        30.08S
THIEF RVR FALL CLEAR     61  55  82 CALM      30.11S
CROOKSTON      CLEAR     55  54  94 NW3       30.12R
FOSSTON        CLEAR     52  46  82 CALM      30.12S
DETROIT LAKES  CLEAR     61  54  77 NW3       30.13S
MOORHEAD       CLEAR     59  57  94 CALM      30.12S
PARK RAPIDS    CLEAR     54  52  93 CALM      30.10S
$$
MNZ006-009>011-018-025>026-300900-
   North Central Minnesota

CITY           SKY/WX    TMP DP  RH WIND       PRES   REMARKS
BAUDETTE       CLEAR     60  55  83 W5        30.07F
FLAG ISLAND    CLEAR     64  57  77 W8        30.05S
INTL FALLS     CLEAR     50  49  96 CALM      30.05S
WASKISH        CLEAR     61  55  82 NW5       30.07S
BIG FORK       CLEAR     54  52  94 CALM      30.07F
LONGVILLE      CLEAR     55  55 100 CALM      30.08S
GRAND RAPIDS   PTCLDY    55  54  94 CALM      30.07S
CRANE LAKE     CLEAR     46  46 100 CALM      30.07F FOG
ORR            CLEAR     52  48  87 CALM      30.05S FOG
COOK           CLEAR     50  48  93 CALM      30.07F
$$
MNZ012-019>021-037-300900-
   Northeast Minnesota

CITY           SKY/WX    TMP DP  RH WIND       PRES   REMARKS
DULUTH         CLEAR     56  53  90 CALM      30.06S FOG
ELY            FOG       48  46  93 CALM      30.07S VSB<1/4
HIBBING        FOG       49  47  93 CALM      30.07S VSB 1/2
EVELETH        FOG       45  45 100 CALM      30.08S VSB 1/4
DULUTH HARBOR  CLEAR     57  55  94 CALM      30.06S
TWO HARBORS    CLEAR     54  48  82 N3        30.05S
SILVER BAY     CLEAR     45  45 100 CALM      30.05S
GRAND MARAIS     N/A     51  49  92 NW5       30.03F
G MARAIS ARPRT CLEAR     45  43  93 NW5       30.06F
$$
MNZ029>031-032-039>041-046>048-054>057-064-300900-
   West Central Minnesota

CITY           SKY/WX    TMP DP  RH WIND       PRES   REMARKS
FERGUS FALLS   CLEAR     55  54  94 CALM      30.13R
WHEATON        CLEAR     55  55 100 CALM      30.14S
MORRIS         CLEAR     54  52  94 NW3       30.11S
ALEXANDRIA     CLEAR     58  54  86 NW5       30.13S
ELBOW LAKE     FAIR      60  56  89 CALM      30.12S
WADENA         CLEAR     57  54  88 W3        30.10S
GLENWOOD       CLEAR     57  54  88 NW6       30.12S
APPLETON       CLEAR     55  54  94 W6        30.11S
BENSON         CLEAR     52  52 100 CALM      30.11S
ORTONVILLE     CLEAR     59  55  88 NW3       30.12S
MADISON        CLEAR     55  54  94 W6        30.12S
WILLMAR        FAIR      57  54  88 NW3       30.12S
$$
MNZ033>034-036-042>043-049>051-058-059-300900-
   Central Minnesota

CITY           SKY/WX    TMP DP  RH WIND       PRES   REMARKS
ST CLOUD       CLEAR     58  54  86 CALM      30.08R
SAUK CENTRE    FAIR      54  52  94 W3        30.11R
PAYNESVILLE    CLEAR     51  51  99 SW6       30.10S FOG
AITKIN         CLEAR     55  50  82 CALM      30.06S HAZE
PINE RIVER     CLEAR     54  54 100 CALM      30.12S
BRAINERD       CLEAR     55  54  96 CALM      30.08F
STAPLES        CLEAR     55  54  94 W3        30.10S
LONG PRAIRIE   FAIR      59  54  82 NW3       30.10S
LITTLE FALLS   CLEAR     54  52  94 CALM      30.09S
LITCHFIELD       N/A     63  57  82 W5        30.10S
BUFFALO        CLEAR     62  55  76 CALM      30.08F
MAPLE LAKE     CLEAR     60  56  87 N3        30.09S
$$
MNZ037-044-045-052-053-300900-
   East Central Minnesota

CITY           SKY/WX    TMP DP  RH WIND       PRES   REMARKS
PRINCETON      CLEAR     55  54  94 CALM      30.08R
MORA           CLEAR     55  54  94 CALM      30.08S
CAMBRIDGE      CLEAR     59  52  77 CALM      30.05S
RUSH CITY      MOCLDY    54  52  94 CALM      30.06S FOG
MOOSE LAKE     CLEAR     54  54 100 CALM      30.04S
HINCKLEY       PTSUNNY   54  54 100 CALM      30.06S
CLOQUET        CLEAR     54  52  94 NW3       30.07R
MCGREGOR       CLEAR     55  54  94 CALM      30.07S
$$
MNZ071>073-080-081-089-090-097-098-300900-
   Southwest Minnesota

CITY           SKY/WX    TMP DP  RH WIND       PRES   REMARKS
MONTEVIDEO     CLEAR     57  54  88 NW7       30.12S
GRANITE FALLS  CLEAR     54  53  95 W6        30.13S
CANBY          CLEAR     57  54  89 W5        30.14S
MARSHALL       CLEAR     55  50  82 W6        30.11S
REDWOOD FALLS  CLEAR     58  54  86 W8        30.10S
OLIVIA         CLEAR     57  54  88 NW5       30.09F
PIPESTONE      CLEAR     55  54  94 CALM      30.15S
WINDOM         CLEAR     54  52  94 CALM      30.13S
WORTHINGTON    CLEAR     54  48  82 W3        30.15S
JACKSON        CLEAR     54  52  94 W5        30.13S
TRACY          CLEAR     57  53  87 W8        30.13S
SLAYTON        CLEAR     55  53  94 CALM      30.15S
$$
MNZ065>067-074>077-082>085-091>093-300900-
   South Central Minnesota

CITY           SKY/WX    TMP DP  RH WIND       PRES   REMARKS
MANKATO        CLEAR     61  52  72 W6        30.08S
NEW ULM        CLEAR     57  55  94 W7        30.09S
ST JAMES       CLEAR     57  54  88 W5        30.11S
FAIRMONT       CLEAR     57  52  82 W5        30.11R
GLENCOE        CLEAR     60  54  79 W3        30.08S
FARIBAULT      CLEAR     57  52  82 CALM      30.07F
OWATONNA       CLEAR     57  54  88 SW6       30.08S
WASECA         CLEAR     52  48  87 CALM      30.10S
ALBERT LEA     CLEAR     57  55  94 CALM      30.09S
$$
MNZ078>079-086>088-094>096-300900-
   Southeast Minnesota

CITY           SKY/WX    TMP DP  RH WIND       PRES   REMARKS
ROCHESTER      CLEAR     59  56  89 W8        30.07F
RED WING       CLEAR     57  55  94 CALM      30.04F
STANTON        CLEAR     57  55  91 SW3       30.05F
DODGE CENTER   PTCLDY    57  55  94 W6        30.07S
WINONA         CLEAR     59  55  88 NW5       30.04S
AUSTIN         CLEAR     55  54  94 CALM      30.07S
PRESTON        CLEAR     58  58 100 W5        30.06F
$$
ABBREVIATIONS USED IN REMARKS
   TC - TEMPERATURES IN CELSIUS
  WCI - WIND CHILL INDEX
   HX - HEAT INDEX
  VSB - VISIBILITY
$$



USA.gov is the U.S. government's official web portal to all federal, state and local government web resources and services.